[[{"header":{"parameterUnit":"m.s-1","parameterCategory":1,"la1":30.2991,"la2":30.254,"lo1":-89.0895,"lo2":-89.0444,"dy":0.0017,"dx":0.0017,"nx":28,"ny":28,"refTime":"2024-10-19T09:00:00:Z","depth":0,"parameterNumber":2,"parameterNumberName":"U-component_of_WINDS"},"data":[0,0,0,0,0,0,0,0,0,0,0,0,0,0,0,0,0,0,0,0,0,0,0,0,0,0,0,0,0,0,0,0,0,0,0,0,0,0,0,0,0,0,0,0,0,0,0,0,0,0,0,0,0,0,0,0,0,0,-3.2823,-3.2823,0,-3.2882,-3.2883,-3.2884,-3.2755,-3.275,-3.2746,-3.2742,-3.2806,-3.2812,-3.2817,0,0,0,0,0,0,0,0,0,0,0,0,0,-3.26,-3.2605,-3.2823,-3.2824,-3.2824,-3.2882,-3.2883,-3.2884,-3.2755,-3.275,-3.2745,-3.274,-3.2804,-3.2811,-3.2818,0,0,0,0,0,0,0,0,0,0,0,0,0,-3.2682,-3.2606,-3.2823,-3.2767,-3.2763,-3.2882,-3.2883,-3.2884,-3.2756,-3.275,-3.2744,-3.2738,-3.2802,-3.281,-3.2818,-3.2995,0,0,-3.2844,-3.2848,0,0,0,0,0,0,0,0,-3.2677,-3.269,-3.2775,-3.2771,-3.2766,-3.2805,-3.2828,-3.2922,-3.2758,-3.2759,-3.2742,-3.2735,-3.2811,-3.2818,-3.2843,-3.2998,-3.3001,-3.2845,-3.285,-3.2854,-3.2856,0,0,0,0,0,0,0,-3.2672,-3.2687,-3.2846,-3.2776,-3.2771,-3.274,-3.2745,-3.2845,-3.2819,-3.2758,-3.2749,-3.2758,-3.2807,-3.2835,-3.2844,-3.3002,-3.2845,-3.2852,-3.2857,-3.286,-3.3306,-3.3313,0,0,0,0,0,0,-3.2673,-3.2683,-3.2844,-3.2848,-3.2706,-3.2749,-3.2754,-3.2799,-3.2818,-3.2815,-3.2763,-3.2752,-3.2824,-3.2834,-3.2845,-3.3055,-3.2853,-3.2861,-3.2866,-3.33,-3.3308,-3.3315,0,0,0,0,0,0,-3.2669,-3.2689,-3.2842,-3.2763,-3.278,-3.2759,-3.281,-3.2803,-3.2831,-3.2821,-3.2816,-3.2796,-3.282,-3.2834,-3.2959,-3.3056,-3.2865,-3.2873,-3.3292,-3.3302,-3.3312,-3.3476,0,0,0,0,0,0,-3.2663,-3.2688,-3.2755,-3.2766,-3.2785,-3.2955,-3.2816,-3.2809,-3.2845,-3.2831,-3.2851,-3.2849,-3.2816,-3.2947,-3.2968,-3.3064,-3.2879,-3.3283,-3.3296,-3.3308,-3.3462,-3.349,-3.3515,0,0,0,0,0,-3.2655,-3.2799,-3.2759,-3.2779,-3.2868,-3.2961,-3.2972,-3.293,-3.2854,-3.2921,-3.2915,-3.2848,-3.3041,-3.2961,-3.2983,-3.3083,-3.3277,-3.3293,-3.3307,-3.345,-3.3485,-3.3514,0,0,0,0,0,0,-3.2801,-3.2799,-3.2755,-3.2906,-3.2934,-3.2939,-3.3022,-3.2968,-3.302,-3.3005,-3.2951,-3.2957,-3.3093,-3.31,-3.3011,-3.3256,-3.3146,-3.3166,-3.3247,-3.328,-3.3306,-3.3303,-3.2886,0,0,0,0,0,-3.285,-3.2925,-3.292,-3.3054,-3.307,-3.3044,-3.3083,-3.3048,-3.3076,-3.3088,-3.309,-3.3121,-3.3188,-3.3234,-3.3295,-3.3461,-3.3464,-3.354,-3.3567,-3.3589,-3.3608,-3.3698,-3.3732,-3.3366,-3.3366,-3.3365,0,0,-3.2954,-3.2962,-3.3013,-3.3083,-3.3101,-3.3181,-3.3055,-3.3144,-3.3203,-3.3101,-3.3221,-3.3224,-3.3254,-3.3401,-3.3465,-3.341,-3.3709,-3.3608,-3.3626,-3.3633,-3.3717,-3.3752,-3.3783,-3.3376,-3.3374,-3.3373,0,0,-3.3184,-3.3197,-3.331,-3.3331,-3.3359,-3.334,-3.3368,-3.338,-3.3378,-3.3496,-3.3422,-3.3491,-3.3608,-3.3633,-3.3661,-3.3899,-3.384,-3.392,-3.4061,-3.4148,-3.4177,-3.4203,-3.429,-3.4322,-3.3939,-3.3939,-3.3939,0,-3.331,-3.3426,-3.3376,-3.3471,-3.3504,-3.3414,-3.3529,-3.3551,-3.3599,-3.3625,-3.3562,-3.3707,-3.372,-3.3873,-3.3931,-3.3956,-3.3987,-3.3919,-3.4177,-3.4202,-3.4225,-3.4308,-3.434,-3.3949,-3.3948,-3.3947,-3.3946,0,-3.358,-3.3661,-3.375,-3.3798,-3.384,-3.3945,-3.3912,-3.3962,-3.3923,-3.3912,-3.4034,-3.4046,-3.4109,-3.4142,-3.4105,-3.429,-3.4255,-3.4185,-3.4075,-3.4271,-3.4348,-3.4379,-3.3963,-3.3959,-3.3957,-3.3954,0,0,-3.3906,-3.3923,-3.3957,-3.3978,-3.4002,-3.4064,-3.4165,-3.4225,-3.427,-3.4305,-3.439,-3.449,-3.4426,-3.4458,-3.4422,-3.4499,-3.469,-3.442,-3.442,-3.4472,-3.4896,-3.4951,-3.4988,-3.4649,-3.4655,-3.466,-3.4894,0,-3.4135,-3.4308,-3.4266,-3.4437,-3.4513,-3.4427,-3.4515,-3.454,-3.4531,-3.4595,-3.4585,-3.4658,-3.4566,-3.4585,-3.4657,-3.4652,-3.4775,-3.4633,-3.473,-3.4734,-3.4728,-3.5028,-3.5086,-3.5307,-3.4924,-3.4929,-3.4932,0,-3.4427,-3.4473,-3.4652,-3.4664,-3.4694,-3.4774,-3.4826,-3.4887,-3.4913,-3.4902,-3.4937,-3.4887,-3.4987,-3.4873,-3.5012,-3.4917,-3.4953,-3.4956,-3.4963,-3.4973,-3.4847,-3.5049,-3.5376,-3.5411,-3.4979,-3.4975,-3.4972,0,-3.465,-3.4756,-3.4878,-3.4898,-3.4914,-3.4972,-3.4982,-3.5001,-3.5041,-3.5086,-3.5111,-3.5168,-3.5201,-3.5246,-3.5213,-3.5132,-3.5358,-3.524,-3.5353,-3.5354,-3.5407,-3.5405,-3.5748,-3.5426,-3.5425,-3.5424,-3.5424,0,-3.4913,-3.5027,-3.4978,-3.5054,-3.5178,-3.5128,-3.5253,-3.5253,-3.5271,-3.5345,-3.5273,-3.5345,-3.5295,-3.5362,-3.5336,-3.5456,-3.547,-3.5465,-3.5458,-3.5474,-3.5475,-3.5499,-3.5484,-3.5433,-3.5431,-3.543,-3.5428,0,-3.5185,-3.5157,-3.5284,-3.5288,-3.5291,-3.5384,-3.5388,-3.5458,-3.5443,-3.5538,-3.5557,-3.5535,-3.561,-3.558,-3.5661,-3.5643,-3.5797,-3.5768,-3.5789,-3.5783,-3.5898,-3.5889,-3.6271,-3.632,-3.5964,-3.5967,-3.597,0,-3.5356,-3.5441,-3.5455,-3.5499,-3.5513,-3.5585,-3.5624,-3.5577,-3.5622,-3.5658,-3.5724,-3.5793,-3.5846,-3.5971,-3.5962,-3.6023,-3.5997,-3.6126,-3.6006,-3.602,-3.6002,-3.5999,-3.6008,-3.6152,-3.6156,-3.616,-3.6162,0,-3.5664,-3.5645,-3.5704,-3.576,-3.5808,-3.5849,-3.5884,-3.5924,-3.5879,-3.5933,-3.6008,-3.6049,-3.6131,-3.6201,-3.6255,-3.6265,-3.6209,-3.62,-3.6229,-3.6249,-3.6258,-3.6257,-3.5858,-3.6192,-3.6189,-3.6187,-3.6185,-3.6184,-3.5892,-3.5965,-3.5986,-3.6054,-3.6075,-3.6109,-3.6175,-3.6168,-3.623,-3.6293,-3.6261,-3.635,-3.6373,-3.644,-3.6459,-3.6528,-3.6478,-3.652,-3.6531,-3.6544,-3.656,-3.6244,-3.6537,-3.6536,-3.6535,-3.6535,-3.6534,0,-3.6199,-3.6207,-3.6271,-3.6321,-3.6376,-3.6313,-3.6349,-3.6399,-3.6478,-3.6504,-3.6557,-3.6645,-3.6712,-3.6709,-3.6771,-3.6828,-3.6803,-3.6846,-3.6843,-3.6847,-3.66,-3.6569,-3.6865,-3.6865,-3.6865,-3.6865,-3.6865,-3.6865,-3.6365,-3.6485,-3.6469,-3.6598,-3.6605,-3.6692,-3.6717,-3.6749,-3.677,-3.6871,-3.6926,-3.6922,-3.6937,-3.7,-3.706,-3.7057,-3.7084,-3.7138,-3.7126,-3.6897,-3.6864,-3.6833,-3.6804,-3.7144,-3.7144,-3.7367,-3.7369,-3.7371]},{"header":{"parameterUnit":"m.s-1","parameterCategory":1,"la1":30.2991,"la2":30.254,"lo1":-89.0895,"lo2":-89.0444,"dy":0.0017,"dx":0.0017,"nx":28,"ny":28,"refTime":"2024-10-19T09:00:00:Z","depth":0,"parameterNumber":3,"parameterNumberName":"V-component_of_WINDS"},"data":[0,0,0,0,0,0,0,0,0,0,0,0,0,0,0,0,0,0,0,0,0,0,0,0,0,0,0,0,0,0,0,0,0,0,0,0,0,0,0,0,0,0,0,0,0,0,0,0,0,0,0,0,0,0,0,0,0,0,-3.1292,-3.1292,0,-3.1301,-3.1302,-3.1302,-3.1263,-3.1262,-3.1261,-3.126,-3.1268,-3.127,-3.1271,0,0,0,0,0,0,0,0,0,0,0,0,0,-3.1239,-3.124,-3.1292,-3.1292,-3.1292,-3.1301,-3.1302,-3.1302,-3.1263,-3.1262,-3.126,-3.1259,-3.1268,-3.1269,-3.1271,0,0,0,0,0,0,0,0,0,0,0,0,0,-3.1256,-3.124,-3.1292,-3.1274,-3.1273,-3.1301,-3.1302,-3.1302,-3.1263,-3.1262,-3.126,-3.1258,-3.1267,-3.1269,-3.1271,-3.1317,0,0,-3.1277,-3.1278,0,0,0,0,0,0,0,0,-3.1255,-3.1258,-3.1277,-3.1275,-3.1274,-3.1279,-3.1286,-3.1307,-3.1264,-3.1267,-3.1259,-3.1257,-3.1273,-3.1275,-3.128,-3.1318,-3.1318,-3.1277,-3.1279,-3.1279,-3.128,0,0,0,0,0,0,0,-3.1254,-3.1258,-3.1296,-3.1277,-3.1275,-3.1265,-3.1266,-3.129,-3.128,-3.1266,-3.1264,-3.1265,-3.1272,-3.1278,-3.128,-3.1318,-3.1277,-3.1279,-3.128,-3.1281,-3.1392,-3.1394,0,0,0,0,0,0,-3.1255,-3.1257,-3.1295,-3.1296,-3.126,-3.1267,-3.1268,-3.1279,-3.1279,-3.1278,-3.1267,-3.1264,-3.1276,-3.1278,-3.128,-3.1332,-3.1279,-3.1281,-3.1282,-3.139,-3.1393,-3.1394,0,0,0,0,0,0,-3.1255,-3.1259,-3.1295,-3.1276,-3.1279,-3.127,-3.1283,-3.128,-3.1286,-3.1279,-3.1277,-3.1275,-3.1275,-3.1277,-3.1308,-3.1332,-3.1282,-3.1284,-3.1388,-3.1391,-3.1394,-3.1439,0,0,0,0,0,0,-3.1253,-3.1259,-3.1277,-3.1276,-3.1281,-3.1323,-3.1284,-3.1282,-3.129,-3.1286,-3.1287,-3.1285,-3.1273,-3.1305,-3.131,-3.1334,-3.1285,-3.1386,-3.1389,-3.1393,-3.1435,-3.1443,-3.1449,0,0,0,0,0,-3.1251,-3.129,-3.1278,-3.1283,-3.1303,-3.1325,-3.1327,-3.1313,-3.1292,-3.131,-3.1305,-3.1285,-3.1329,-3.1309,-3.1314,-3.1339,-3.1384,-3.1389,-3.1392,-3.1432,-3.1441,-3.1449,0,0,0,0,0,0,-3.1294,-3.129,-3.1277,-3.1316,-3.1321,-3.1318,-3.134,-3.1324,-3.1335,-3.133,-3.1312,-3.1313,-3.1346,-3.1346,-3.1323,-3.1382,-3.1353,-3.1358,-3.1381,-3.139,-3.1397,-3.1396,-3.1287,0,0,0,0,0,-3.1308,-3.1327,-3.1322,-3.1357,-3.136,-3.135,-3.1359,-3.1347,-3.1352,-3.1354,-3.1351,-3.1356,-3.137,-3.138,-3.1394,-3.1435,-3.1434,-3.1455,-3.1462,-3.1468,-3.1472,-3.1492,-3.15,-3.1408,-3.1408,-3.1408,0,0,-3.1337,-3.1337,-3.135,-3.1365,-3.1368,-3.1386,-3.1352,-3.1374,-3.1387,-3.1357,-3.1385,-3.1383,-3.1387,-3.1423,-3.1439,-3.1424,-3.1497,-3.1473,-3.1478,-3.1479,-3.1497,-3.1506,-3.1513,-3.141,-3.141,-3.1409,0,0,-3.1399,-3.1402,-3.143,-3.1434,-3.1438,-3.143,-3.1437,-3.1437,-3.1434,-3.1462,-3.144,-3.1455,-3.1481,-3.1484,-3.1489,-3.1551,-3.1533,-3.1556,-3.1593,-3.1612,-3.162,-3.1626,-3.1646,-3.1654,-3.1561,-3.1561,-3.1561,0,-3.1435,-3.1462,-3.1447,-3.147,-3.1476,-3.145,-3.1478,-3.1482,-3.149,-3.1495,-3.1479,-3.151,-3.1511,-3.1546,-3.1561,-3.1566,-3.1572,-3.1555,-3.162,-3.1626,-3.1632,-3.1651,-3.1659,-3.1564,-3.1563,-3.1563,-3.1563,0,-3.1505,-3.1524,-3.1547,-3.1555,-3.1564,-3.159,-3.1577,-3.1589,-3.1576,-3.1571,-3.1599,-3.1599,-3.1611,-3.1618,-3.1607,-3.1651,-3.1642,-3.1623,-3.1593,-3.1643,-3.1661,-3.1668,-3.1567,-3.1566,-3.1566,-3.1565,0,0,-3.1594,-3.1592,-3.1601,-3.1603,-3.1605,-3.1619,-3.1643,-3.1655,-3.1664,-3.1671,-3.1689,-3.1711,-3.1693,-3.1699,-3.1687,-3.1705,-3.1752,-3.1684,-3.1683,-3.1695,-3.1798,-3.1811,-3.182,-3.174,-3.1741,-3.1742,-3.1797,0,-3.1653,-3.1693,-3.168,-3.172,-3.1737,-3.1711,-3.1732,-3.1735,-3.173,-3.1743,-3.1737,-3.1753,-3.1729,-3.1732,-3.1748,-3.1743,-3.1772,-3.1739,-3.1755,-3.1756,-3.1753,-3.1829,-3.1843,-3.1895,-3.1804,-3.1805,-3.1806,0,-3.1728,-3.1736,-3.1778,-3.1776,-3.1782,-3.1801,-3.1809,-3.1822,-3.1825,-3.182,-3.1826,-3.181,-3.1832,-3.1803,-3.1832,-3.181,-3.1816,-3.1814,-3.1816,-3.1816,-3.1783,-3.1829,-3.1912,-3.1919,-3.1817,-3.1816,-3.1816,0,-3.1786,-3.1808,-3.1835,-3.1839,-3.1837,-3.185,-3.185,-3.1851,-3.1858,-3.1866,-3.187,-3.188,-3.1886,-3.1894,-3.1881,-3.1861,-3.1911,-3.1882,-3.1907,-3.1907,-3.1917,-3.1916,-3.1999,-3.1924,-3.1924,-3.1924,-3.1924,0,-3.1853,-3.1879,-3.1861,-3.1878,-3.1906,-3.189,-3.1918,-3.1915,-3.1916,-3.1931,-3.191,-3.1925,-3.1908,-3.1921,-3.1911,-3.1936,-3.1939,-3.1935,-3.1931,-3.1935,-3.1936,-3.1938,-3.1933,-3.1926,-3.1926,-3.1925,-3.1925,0,-3.1922,-3.1912,-3.1939,-3.1935,-3.1934,-3.1955,-3.1951,-3.1966,-3.1959,-3.1978,-3.1982,-3.1972,-3.1985,-3.1974,-3.1988,-3.1981,-3.2013,-3.2006,-3.2012,-3.2009,-3.2034,-3.2031,-3.212,-3.213,-3.2051,-3.2051,-3.2052,0,-3.1964,-3.1983,-3.1981,-3.1989,-3.199,-3.2004,-3.2011,-3.1996,-3.2004,-3.2007,-3.2021,-3.2033,-3.2042,-3.2065,-3.2058,-3.2068,-3.206,-3.209,-3.2061,-3.2064,-3.2058,-3.2056,-3.2057,-3.2096,-3.2097,-3.2098,-3.2098,0,-3.204,-3.2033,-3.2044,-3.2053,-3.2061,-3.2067,-3.2072,-3.208,-3.2064,-3.2074,-3.2088,-3.2094,-3.2108,-3.2119,-3.2127,-3.2126,-3.2109,-3.2108,-3.2114,-3.2117,-3.2119,-3.2116,-3.2026,-3.2105,-3.2105,-3.2104,-3.2104,-3.2103,-3.2095,-3.211,-3.211,-3.2122,-3.2124,-3.2129,-3.2142,-3.2136,-3.2147,-3.2156,-3.2147,-3.2163,-3.2164,-3.2172,-3.2173,-3.2185,-3.2172,-3.2182,-3.2183,-3.2185,-3.2188,-3.2119,-3.2187,-3.2187,-3.2186,-3.2186,-3.2186,0,-3.2168,-3.2166,-3.2178,-3.2184,-3.2193,-3.2177,-3.2181,-3.2189,-3.2203,-3.2206,-3.2214,-3.2229,-3.224,-3.2234,-3.2243,-3.2254,-3.2246,-3.2256,-3.2255,-3.2254,-3.22,-3.2193,-3.2262,-3.2262,-3.2262,-3.2262,-3.2262,-3.2262,-3.2206,-3.223,-3.2224,-3.2248,-3.2246,-3.2261,-3.2265,-3.2268,-3.2269,-3.2287,-3.2295,-3.2291,-3.229,-3.2299,-3.2308,-3.2306,-3.2309,-3.2322,-3.2317,-3.2266,-3.2258,-3.2251,-3.2244,-3.2323,-3.2323,-3.237,-3.237,-3.2371]}]]